Time,TemperatureF,DewpointF,PressureIn,WindDirection,WindDirectionDegrees,WindSpeedMPH,WindSpeedGustMPH,Humidity,HourlyPrecipIn,Conditions,Clouds,dailyrainin,SoftwareType,DateUTC
2013-03-27 00:12:00,45.5,44.0,29.99,NNE,14,0.0,4.0,93,0.00,,,0.01,weatherlink.com 1.10,2013-03-27 07:12:00,
2013-03-27 00:27:00,45.5,44.0,29.99,North,11,0.0,5.0,94,0.00,,,0.01,weatherlink.com 1.10,2013-03-27 07:27:00,
2013-03-27 00:42:00,45.5,44.0,29.99,NNE,28,0.0,4.0,94,0.00,,,0.00,weatherlink.com 1.10,2013-03-27 07:42:00,
2013-03-27 00:57:00,45.5,44.0,29.98,North,10,0.0,4.0,94,0.00,,,0.00,weatherlink.com 1.10,2013-03-27 07:57:00,
2013-03-27 01:12:00,45.5,44.0,29.98,NNE,20,0.0,1.0,94,0.00,,,0.00,weatherlink.com 1.10,2013-03-27 08:12:00,
2013-03-27 01:27:00,45.5,44.0,29.98,NNE,21,0.0,4.0,94,0.00,,,0.00,weatherlink.com 1.10,2013-03-27 08:27:00,
2013-03-27 01:42:00,45.5,44.0,29.98,NNE,18,0.0,3.0,94,0.00,,,0.00,weatherlink.com 1.10,2013-03-27 08:42:00,
2013-03-27 01:57:00,45.6,44.0,29.98,NNE,29,1.0,3.0,94,0.00,,,0.00,weatherlink.com 1.10,2013-03-27 08:57:00,
2013-03-27 02:12:00,45.8,44.0,29.98,NNE,19,0.0,5.0,94,0.00,,,0.00,weatherlink.com 1.10,2013-03-27 09:12:00,
2013-03-27 02:27:00,45.7,44.0,29.97,NNE,19,1.0,2.0,94,0.00,,,0.00,weatherlink.com 1.10,2013-03-27 09:27:00,
2013-03-27 02:42:00,46.0,44.0,29.97,North,355,0.0,3.0,94,0.00,,,0.00,weatherlink.com 1.10,2013-03-27 09:42:00,
2013-03-27 02:57:00,46.1,45.0,29.97,NNE,19,0.0,7.0,94,0.00,,,0.00,weatherlink.com 1.10,2013-03-27 09:57:00,
2013-03-27 03:12:00,46.4,45.0,29.97,NE,34,4.0,6.0,93,0.00,,,0.00,weatherlink.com 1.10,2013-03-27 10:12:00,
2013-03-27 03:27:00,46.8,45.0,29.97,North,350,0.0,5.0,92,0.00,,,0.00,weatherlink.com 1.10,2013-03-27 10:27:00,
2013-03-27 03:42:00,46.5,45.0,29.96,North,355,4.0,5.0,93,0.00,,,0.00,weatherlink.com 1.10,2013-03-27 10:42:00,
2013-03-27 03:57:00,46.2,44.0,29.96,NNE,32,0.0,3.0,93,0.00,,,0.00,weatherlink.com 1.10,2013-03-27 10:57:00,
2013-03-27 04:12:00,46.1,45.0,29.96,North,11,0.0,8.0,94,0.00,,,0.00,weatherlink.com 1.10,2013-03-27 11:12:00,
2013-03-27 04:27:00,46.0,45.0,29.96,NNE,23,0.0,0.0,95,0.00,,,0.00,weatherlink.com 1.10,2013-03-27 11:27:00,
2013-03-27 04:42:00,46.3,45.0,29.96,North,10,4.0,4.0,95,0.00,,,0.00,weatherlink.com 1.10,2013-03-27 11:42:00,
2013-03-27 04:57:00,46.5,45.0,29.96,North,5,0.0,4.0,95,0.00,,,0.00,weatherlink.com 1.10,2013-03-27 11:57:00,
2013-03-27 05:12:00,46.8,46.0,29.96,NNW,348,1.0,5.0,95,0.00,,,0.00,weatherlink.com 1.10,2013-03-27 12:12:00,
2013-03-27 05:27:00,47.0,46.0,29.96,NNE,17,0.0,0.0,95,0.00,,,0.00,weatherlink.com 1.10,2013-03-27 12:27:00,
2013-03-27 05:42:00,47.2,46.0,29.96,NNE,24,0.0,4.0,96,0.00,,,0.00,weatherlink.com 1.10,2013-03-27 12:42:00,
2013-03-27 05:57:00,47.1,46.0,29.96,NNE,31,1.0,2.0,95,0.00,,,0.00,weatherlink.com 1.10,2013-03-27 12:57:00,
2013-03-27 06:12:00,46.9,46.0,29.96,SW,221,0.0,3.0,96,0.00,,,0.00,weatherlink.com 1.10,2013-03-27 13:12:00,
2013-03-27 06:27:00,46.9,46.0,29.96,North,9,0.0,1.0,96,0.00,,,0.00,weatherlink.com 1.10,2013-03-27 13:27:00,
2013-03-27 06:42:00,47.1,46.0,29.95,NNE,28,2.0,7.0,96,0.00,,,0.00,weatherlink.com 1.10,2013-03-27 13:42:00,
2013-03-27 06:57:00,47.3,46.0,29.96,SW,236,0.0,2.0,96,0.00,,,0.00,weatherlink.com 1.10,2013-03-27 13:57:00,
2013-03-27 07:12:00,47.3,46.0,29.96,SW,236,0.0,0.0,96,0.00,,,0.00,weatherlink.com 1.10,2013-03-27 14:12:00,
2013-03-27 07:27:00,47.4,46.0,29.96,SW,236,0.0,0.0,96,0.00,,,0.00,weatherlink.com 1.10,2013-03-27 14:27:00,
2013-03-27 07:42:00,47.6,47.0,29.97,WSW,244,0.0,0.0,96,0.00,,,0.00,weatherlink.com 1.10,2013-03-27 14:42:00,
2013-03-27 07:58:00,47.8,47.0,29.97,WSW,244,0.0,0.0,96,0.00,,,0.00,weatherlink.com 1.10,2013-03-27 14:58:00,
2013-03-27 08:13:00,47.9,47.0,29.98,SW,219,0.0,1.0,96,0.00,,,0.00,weatherlink.com 1.10,2013-03-27 15:13:00,
2013-03-27 08:28:00,48.0,47.0,29.98,NNW,338,0.0,0.0,96,0.00,,,0.00,weatherlink.com 1.10,2013-03-27 15:28:00,
2013-03-27 08:43:00,48.1,47.0,29.98,SW,220,0.0,0.0,96,0.00,,,0.00,weatherlink.com 1.10,2013-03-27 15:43:00,
2013-03-27 08:58:00,48.3,47.0,29.98,SW,220,0.0,0.0,96,0.01,,,0.01,weatherlink.com 1.10,2013-03-27 15:58:00,
2013-03-27 09:13:00,49.1,48.0,29.98,SW,220,0.0,0.0,97,0.01,,,0.01,weatherlink.com 1.10,2013-03-27 16:13:00,
2013-03-27 09:28:00,49.3,48.0,29.98,SW,235,0.0,0.0,96,0.01,,,0.01,weatherlink.com 1.10,2013-03-27 16:28:00,
2013-03-27 09:43:00,49.5,49.0,29.99,SSW,213,0.0,0.0,97,0.01,,,0.01,weatherlink.com 1.10,2013-03-27 16:43:00,
2013-03-27 09:58:00,50.2,49.0,29.99,SSW,213,0.0,0.0,97,0.00,,,0.01,weatherlink.com 1.10,2013-03-27 16:58:00,
2013-03-27 10:13:00,49.9,49.0,29.99,SSW,213,0.0,3.0,96,0.00,,,0.01,weatherlink.com 1.10,2013-03-27 17:13:00,
2013-03-27 10:28:00,50.0,49.0,30.00,SW,224,4.0,5.0,96,0.01,,,0.02,weatherlink.com 1.10,2013-03-27 17:28:00,
2013-03-27 10:43:00,50.1,49.0,30.00,SW,223,4.0,6.0,96,0.01,,,0.02,weatherlink.com 1.10,2013-03-27 17:43:00,
2013-03-27 10:58:00,50.4,50.0,30.00,SW,232,3.0,7.0,97,0.01,,,0.02,weatherlink.com 1.10,2013-03-27 17:58:00,
2013-03-27 11:13:00,50.5,50.0,30.00,SW,234,3.0,6.0,97,0.01,,,0.02,weatherlink.com 1.10,2013-03-27 18:13:00,
2013-03-27 11:28:00,51.0,50.0,30.00,SSW,192,0.0,6.0,97,0.00,,,0.02,weatherlink.com 1.10,2013-03-27 18:28:00,
2013-03-27 11:43:00,51.5,51.0,30.01,SSW,209,4.0,6.0,97,0.00,,,0.02,weatherlink.com 1.10,2013-03-27 18:43:00,
2013-03-27 11:58:00,51.7,51.0,30.01,SSW,199,0.0,6.0,97,0.00,,,0.02,weatherlink.com 1.10,2013-03-27 18:58:00,
2013-03-27 12:13:00,52.1,51.0,30.01,SSW,213,4.0,7.0,97,0.00,,,0.02,weatherlink.com 1.10,2013-03-27 19:13:00,
2013-03-27 12:28:00,52.0,51.0,30.01,SSW,205,6.0,7.0,97,0.00,,,0.02,weatherlink.com 1.10,2013-03-27 19:28:00,
2013-03-27 12:43:00,51.7,51.0,30.01,SSW,210,3.0,8.0,97,0.00,,,0.02,weatherlink.com 1.10,2013-03-27 19:43:00,
2013-03-27 12:58:00,52.1,51.0,30.01,SSE,165,2.0,8.0,97,0.00,,,0.02,weatherlink.com 1.10,2013-03-27 19:58:00,
2013-03-27 13:13:00,52.8,52.0,30.01,SW,215,6.0,12.0,96,0.00,,,0.02,weatherlink.com 1.10,2013-03-27 20:13:00,
2013-03-27 13:28:00,54.0,53.0,30.01,SSW,192,6.0,10.0,96,0.00,,,0.02,weatherlink.com 1.10,2013-03-27 20:28:00,
2013-03-27 13:43:00,54.8,53.0,30.00,SW,223,5.0,10.0,95,0.00,,,0.02,weatherlink.com 1.10,2013-03-27 20:43:00,
2013-03-27 13:58:00,53.4,52.0,30.00,SSW,203,7.0,9.0,93,0.00,,,0.02,weatherlink.com 1.10,2013-03-27 20:58:00,
2013-03-27 14:13:00,53.2,51.0,30.00,SW,226,5.0,8.0,93,0.00,,,0.02,weatherlink.com 1.10,2013-03-27 21:13:00,
2013-03-27 14:28:00,53.0,51.0,30.00,South,187,8.0,9.0,93,0.00,,,0.02,weatherlink.com 1.10,2013-03-27 21:28:00,
2013-03-27 14:43:00,52.4,51.0,30.00,SW,221,5.0,10.0,93,0.00,,,0.02,weatherlink.com 1.10,2013-03-27 21:43:00,
2013-03-27 14:58:00,51.6,50.0,30.00,SW,220,6.0,10.0,95,0.00,,,0.02,weatherlink.com 1.10,2013-03-27 21:58:00,
2013-03-27 15:13:00,51.8,51.0,30.00,SW,214,6.0,10.0,95,0.00,,,0.02,weatherlink.com 1.10,2013-03-27 22:13:00,
2013-03-27 15:28:00,50.8,50.0,30.00,SSW,204,3.0,7.0,95,0.00,,,0.02,weatherlink.com 1.10,2013-03-27 22:28:00,
2013-03-27 15:43:00,50.6,50.0,30.00,SSW,210,3.0,6.0,96,0.00,,,0.02,weatherlink.com 1.10,2013-03-27 22:43:00,
2013-03-27 15:58:00,50.6,50.0,30.00,SW,217,0.0,6.0,96,0.00,,,0.02,weatherlink.com 1.10,2013-03-27 22:58:00,
2013-03-27 16:13:00,50.3,49.0,30.00,SSW,206,3.0,5.0,96,0.00,,,0.02,weatherlink.com 1.10,2013-03-27 23:13:00,
2013-03-27 16:28:00,50.3,49.0,30.00,SW,229,3.0,5.0,96,0.00,,,0.02,weatherlink.com 1.10,2013-03-27 23:28:00,
2013-03-27 16:43:00,50.3,49.0,30.00,SSW,196,4.0,4.0,96,0.00,,,0.02,weatherlink.com 1.10,2013-03-27 23:43:00,
2013-03-27 16:58:00,50.4,49.0,30.00,SW,214,0.0,4.0,96,0.00,,,0.02,weatherlink.com 1.10,2013-03-27 23:58:00,
2013-03-27 17:13:00,50.6,50.0,30.00,SW,224,0.0,3.0,97,0.00,,,0.02,weatherlink.com 1.10,2013-03-28 00:13:00,
2013-03-27 17:28:00,50.8,50.0,30.00,SSW,208,0.0,4.0,96,0.00,,,0.02,weatherlink.com 1.10,2013-03-28 00:28:00,
2013-03-27 17:43:00,50.9,50.0,30.00,SSW,206,2.0,4.0,96,0.00,,,0.02,weatherlink.com 1.10,2013-03-28 00:43:00,
2013-03-27 17:58:00,50.8,50.0,30.00,South,190,3.0,4.0,96,0.00,,,0.02,weatherlink.com 1.10,2013-03-28 00:58:00,
2013-03-27 18:13:00,50.6,50.0,30.01,SSW,205,0.0,3.0,96,0.00,,,0.02,weatherlink.com 1.10,2013-03-28 01:13:00,
2013-03-27 18:28:00,50.5,49.0,30.01,SSW,210,0.0,0.0,96,0.00,,,0.02,weatherlink.com 1.10,2013-03-28 01:28:00,
2013-03-27 18:43:00,50.3,49.0,30.00,SW,214,0.0,0.0,96,0.00,,,0.02,weatherlink.com 1.10,2013-03-28 01:43:00,
2013-03-27 18:58:00,50.2,49.0,30.00,SSW,213,0.0,0.0,96,0.00,,,0.02,weatherlink.com 1.10,2013-03-28 01:58:00,
2013-03-27 19:13:00,50.3,49.0,30.00,SSW,213,0.0,0.0,96,0.00,,,0.02,weatherlink.com 1.10,2013-03-28 02:13:00,
2013-03-27 19:28:00,50.3,49.0,30.00,SSW,213,0.0,0.0,96,0.00,,,0.02,weatherlink.com 1.10,2013-03-28 02:28:00,
2013-03-27 19:43:00,50.4,49.0,30.00,SSW,213,0.0,0.0,96,0.00,,,0.02,weatherlink.com 1.10,2013-03-28 02:43:00,
2013-03-27 19:58:00,50.3,49.0,30.00,SSW,213,0.0,0.0,96,0.00,,,0.02,weatherlink.com 1.10,2013-03-28 02:58:00,
2013-03-27 20:13:00,50.4,49.0,30.01,SSW,213,0.0,0.0,96,0.00,,,0.02,weatherlink.com 1.10,2013-03-28 03:13:00,
2013-03-27 20:28:00,50.4,49.0,30.01,SSW,213,0.0,0.0,96,0.00,,,0.02,weatherlink.com 1.10,2013-03-28 03:28:00,
2013-03-27 20:43:00,50.3,49.0,30.01,SW,214,0.0,0.0,96,0.00,,,0.02,weatherlink.com 1.10,2013-03-28 03:43:00,
2013-03-27 20:58:00,50.1,49.0,30.01,SW,214,0.0,0.0,96,0.00,,,0.02,weatherlink.com 1.10,2013-03-28 03:58:00,
2013-03-27 21:13:00,50.1,49.0,30.01,SW,214,0.0,0.0,96,0.00,,,0.02,weatherlink.com 1.10,2013-03-28 04:13:00,
2013-03-27 21:28:00,49.9,49.0,30.02,SW,214,0.0,0.0,96,0.00,,,0.02,weatherlink.com 1.10,2013-03-28 04:28:00,
2013-03-27 21:43:00,49.7,49.0,30.02,SW,214,0.0,0.0,96,0.00,,,0.02,weatherlink.com 1.10,2013-03-28 04:43:00,
2013-03-27 21:58:00,49.7,49.0,30.02,SW,214,0.0,0.0,96,0.00,,,0.02,weatherlink.com 1.10,2013-03-28 04:58:00,
2013-03-27 22:13:00,49.7,49.0,30.02,SW,214,0.0,0.0,96,0.00,,,0.02,weatherlink.com 1.10,2013-03-28 05:13:00,
2013-03-27 22:28:00,49.7,49.0,30.02,SW,214,0.0,0.0,97,0.00,,,0.02,weatherlink.com 1.10,2013-03-28 05:28:00,
2013-03-27 22:43:00,49.5,49.0,30.03,SSW,213,3.0,4.0,97,0.00,,,0.02,weatherlink.com 1.10,2013-03-28 05:43:00,
2013-03-27 22:58:00,49.1,48.0,30.03,SSW,213,0.0,4.0,97,0.00,,,0.02,weatherlink.com 1.10,2013-03-28 05:58:00,
2013-03-27 23:14:00,49.1,48.0,30.03,SSW,213,0.0,0.0,97,0.00,,,0.02,weatherlink.com 1.10,2013-03-28 06:14:00,
2013-03-27 23:29:00,49.2,48.0,30.03,SSW,213,0.0,0.0,97,0.00,,,0.02,weatherlink.com 1.10,2013-03-28 06:29:00,
2013-03-27 23:44:00,49.1,48.0,30.03,SSW,213,0.0,0.0,97,0.00,,,0.02,weatherlink.com 1.10,2013-03-28 06:44:00,
2013-03-27 23:59:00,49.0,48.0,30.03,SSW,213,0.0,0.0,97,0.00,,,0.02,weatherlink.com 1.10,2013-03-28 06:59:00,